sat.trackr.live / text

‹ back to catalog

TDRS 6

NORAD 22314 · 1993-003B

PAYLOAD ACTIVE UNKNOWN

§ Identity

Operator
Country
US
Launch date
1993-01-13
Launch site
AFETR
Launch vehicle
Mass (kg)
RCS (m²)
28.67

Purposes: comms

External: N2YO · Heavens-Above · Gunter

§ Orbital elements

Epoch: 2026-05-25T05:14:57.561792Z

Period
1,435.98 min
Inclination
14.1828°
Eccentricity
0.0006773
Mean motion
1.00279814 rev/d
Perigee alt
35,755.8 km
Apogee alt
35,812.9 km
Semi-major
42,162.5 km
B*
0.0000e+0
RAAN
357.2312°
Arg perigee
180.1499°
Mean anomaly
98.1177°
Rev number
12,217

§ Raw data

TDRS 61 22314U 93003B   26145.21872178 -.00000305  00000+0  00000+0 0  99982 22314  14.1828 357.2312 0006773 180.1499  98.1177  1.00279814122174

JSON: /api/v1/satellites/22314 · /tle

For live sub-satellite position, see the globe view (requires WebGL).

§ Visibility from observer

Set your observer location to see the next 7 days of passes ≥ 10°. The values pass through the URL so the page stays shareable.

No JS? Fill the form by hand. The geolocation button needs JavaScript.